Regional Weather Roundup
Issued by NWS Upton, NY

Current Version | Previous Version | Text Only | Print | Product List | Glossary On
Versions: 1 2 3 4 5 6 7 8 9 10 11 12 13 14 15 16 17 18 19 20 21 22 23 24 25 26 27 28 29 30 31 32 33 34 35 36 37 38 39 40 41 42 43 44 45 46 47 48 49 50
000
ASUS41 KOKX 230805
RWROKX

REGIONAL WEATHER ROUNDUP
NATIONAL WEATHER SERVICE NEW YORK NY
300 AM EST SUN NOV 23 2014

NOTE: "FAIR" INDICATES FEW OR NO CLOUDS BELOW 12,000 FEET WITH NO
SIGNIFICANT WEATHER AND/OR OBSTRUCTIONS TO VISIBILITY.

NYZ071-072-176-178-NJZ106-104-230900-
NEW YORK CITY METRO AREA


CITY           SKY/WX    TMP DP  RH WIND       PRES   REMARKS
CENTRAL PARK   CLOUDY    44  20  38 SW12G23   30.19F
LAGUARDIA APRT CLOUDY    44  22  41 SW10      30.18S
KENNEDY INTL   CLOUDY    44  24  45 SW16      30.20S
NEWARK/LIBERTY CLOUDY    42  23  46 SW8       30.19S
BRNX BOT. GARD   N/A    N/A N/A N/A SW9       30.19S
TETERBORO      CLOUDY    41  22  46 SW5       30.17F
$$

NYZ177-179-078>081-230900-
LONG ISLAND NEW YORK

CITY           SKY/WX    TMP DP  RH WIND       PRES   REMARKS
FARMINGDALE    CLOUDY    45  23  42 SW13      30.18F
ISLIP          CLOUDY    44  26  49 W12       30.16F
SHIRLEY        CLOUDY    45  28  51 SW8       30.18F
WESTHAMPTON    CLOUDY    46  26  45 SW15      30.18F
MONTAUK POINT    N/A     47  32  56 SW13      30.17S
$$

NYZ052-065-067-230900-
HUDSON VALLEY

CITY           SKY/WX    TMP DP  RH WIND       PRES   REMARKS
WHITE PLAINS   CLOUDY    42  18  37 W6        30.15F
NEWBURGH       MOCLDY    39  21  48 SW6       30.15F WCI  35
MONTGOMERY     CLOUDY    38  21  50 SW7       30.13F WCI  33
POUGHKEEPSIE   CLOUDY    43  20  39 SW6       30.15F
ALBANY         LGT RAIN  37  31  78 S7        30.10R WCI  32
$$

NJZ001-105-106-008-010-013-015-019>022-104-230900-
NEW JERSEY

CITY           SKY/WX    TMP DP  RH WIND       PRES   REMARKS
NEWARK/LIBERTY CLOUDY    42  23  46 SW8       30.19S
TETERBORO      CLOUDY    41  22  46 SW5       30.17F
CALDWELL       CLOUDY    41  19  41 VRB5      30.18S
MORRISTOWN       N/A     43  19  39 SW3       30.18S
SOMERVILLE     CLOUDY    38  22  52 CALM      30.18F
SUSSEX         CLOUDY    38  21  50 SW7       30.15S WCI  33
ANDOVER          N/A     38  20  48 VRB3      30.16S
TRENTON        MOCLDY    40  24  53 SW9       30.19F WCI  34
MILLVILLE      PTCLDY    43  23  45 VRB6      30.24F
ATLANTIC CITY  MOCLDY    43  23  45 SW13      30.23F
WRIGHTSTOWN    PTCLDY    39  21  49 S3        30.19F
TOMS RIVER     PTCLDY    39  21  48 CALM      30.22F
BELMAR         MOCLDY    41  19  42 SW8       30.20F
$$

PAZ047>061-062-071-230900-
EASTERN PENNSYLVANIA

CITY           SKY/WX    TMP DP  RH WIND       PRES   REMARKS
PHILADELPHIA   MOCLDY    40  25  55 S8        30.22F WCI  34
ALLENTOWN      CLOUDY    37  23  56 NW3       30.19R
SCRANTON       CLOUDY    40  18  41 CALM      30.14R
$$

CTZ002-004>006-009-010-012-RIZ004-006-007-MAZ004-011-015-230900-
SOUTHERN NEW ENGLAND
 IN CT

CITY           SKY/WX    TMP DP  RH WIND       PRES   REMARKS
BRADLEY INTL   CLOUDY    43  20  39 S9        30.11S
HARTFORD       CLOUDY    41  20  43 SE7       30.14F
DANBURY        CLOUDY    40  18  41 NW3       30.16S
WTRBRY/OXFORD  CLOUDY    39  18  41 W7        30.14F WCI  34
BRIDGEPORT     CLOUDY    45  26  47 W9        30.16F
MERIDEN        CLOUDY    41  19  41 S6        30.15F
NEW HAVEN      CLOUDY    48  24  39 W7        30.16F
CHESTER        FAIR      43  28  56 SW7       30.15F
GROTON         MOCLDY    45  30  55 W14G24    30.15F
WILLIMANTIC    CLOUDY    44  20  38 SW3       30.15R

 IN RI

CITY           SKY/WX    TMP DP  RH WIND       PRES   REMARKS
PROVIDENCE     CLOUDY    44  26  49 SW8       30.12S
BLOCK ISLAND   MOCLDY    46  30  53 W21G32    30.15S
WESTERLY       MOCLDY    46  29  51 W15G22    30.15F

 IN MA

CITY           SKY/WX    TMP DP  RH WIND       PRES   REMARKS
BOSTON         CLOUDY    45  25  45 SW13      30.08R
WORCESTER      LGT RAIN  39  24  55 W22G30    30.05S WCI  29
WESTFIELD      LGT RAIN  36  32  85 S3        30.10F
PROVINCETOWN   CLOUDY    48  32  53 SW18G25   30.09S
NANTUCKET      CLOUDY    52  41  66 SW21G35   30.14S
$$

ANZ330-335-338-340-345-350-353-355-230900-
COASTAL MARINE OBSERVATIONS


STATION/POSITION TIME  SKY/WX   TEMP    WIND        PRES    VSBY  WAVE
                                AIR SEA DIR/SP/G                  HT/PER
                 (UTC)          (F)     (DEG/KT/KT) (MB)    (MI)  (FT/S)
NY HARB ENTRANCE 0800            48 57  240/ 19/ 25 1022.6          4/ 7
4S FIRE IS       0800               52                N/A           7/ 7
20S FIRE ISLAND  0800            49 53  240/ 21/ 27 1022.2          8/ 8
23SW MTP         0800                                 N/A           9/ 8
HUDSON CANYON    0800            53 58  260/ 21/ 27 1023.5
EXECUTION ROCKS  NOT AVBL
WESTERN LI SOUND NOT AVBL
CENTRAL LI SOUND NOT AVBL
EASTERN LI SOUND NOT AVBL
ROBBINS REEF     0800            43     230/ 13/ 18 1020.9
$$


>>>>>>>>>>>>>>>>>>>>>>>>>>>> KEY <<<<<<<<<<<<<<<<<<<<<<<<<<<
>                                                          <
>     SKY/WX - SKY CONDITION/PRESENT WEATHER               <
>     TMP    - TEMPERATURE IN FAHRENHEIT                   <
>     DP     - DEWPOINT IN FAHRENHEIT                      <
>     RH     - RELATIVE HUMIDITY IN PERCENT                <
>     WIND   - DIRECTION AND SPEED IN MPH                  <
>     PRES   - MEAN SEA LEVEL PRESSURE IN INCHES OF HG     <
>     WCI    - WIND CHILL INDEX                            <
>     VSB    - VISIBILITY IN MILES                         <
>     HX     - HEAT INDEX                                  <
>     TC     - TEMPERATURE IN CELSIUS                      <
>     VRB    - VARIABLE WIND DIRECTION                     <
>                                                          <
>>>>>>>>>>>>>>>>>>>>>>>>>>>> KEY <<<<<<<<<<<<<<<<<<<<<<<<<<<





USA.gov is the U.S. government's official web portal to all federal, state and local government web resources and services.